{"data":{"norad_id":66001,"epoch":"2026-05-25T00:50:17.151072Z","epoch_age_seconds":72806,"freshness":"FRESH","line1":"1 66001U 25231G   26145.03492073 -.00000103  00000+0  46009-4 0  9999","line2":"2 66001  50.0023 258.4866 0000930 149.3891 210.7035 13.29327407 29817","mean_motion":13.29327407,"eccentricity":9.3e-5,"inclination_deg":50.0023,"raan_deg":258.4866,"arg_perigee_deg":149.3891,"mean_anomaly_deg":210.7035,"bstar":4.6009e-5,"rev_number":2981,"period_min":108.32545785314,"perigee_km":1148.6012085799,"apogee_km":1150.0013120964,"semimajor_km":7527.4382603381,"source":"CELESTRAK","updated_at":"2026-05-25T13:38:05.884737Z"}}